TimeCST,TemperatureF,Dew PointF,Humidity,Sea Level PressureIn,VisibilityMPH,Wind Direction,Wind SpeedMPH,Gust SpeedMPH,PrecipitationIn,Events,Conditions,WindDirDegrees,DateUTC
12:15 AM,41.0,32.0,70,30.27,10.0,North,3.5,-,N/A,,Clear,10,2013-03-07 06:15:00
12:35 AM,41.0,32.0,70,30.27,10.0,North,3.5,-,N/A,,Clear,10,2013-03-07 06:35:00
12:55 AM,41.0,32.0,70,30.27,10.0,North,6.9,-,N/A,,Clear,10,2013-03-07 06:55:00
1:15 AM,39.2,32.0,75,30.28,10.0,NNE,6.9,-,N/A,,Clear,20,2013-03-07 07:15:00
1:35 AM,39.2,32.0,75,30.28,10.0,NNE,5.8,-,N/A,,Clear,20,2013-03-07 07:35:00
1:55 AM,39.2,32.0,75,30.28,10.0,North,5.8,-,N/A,,Clear,10,2013-03-07 07:55:00
2:15 AM,39.2,32.0,75,30.27,10.0,North,3.5,-,N/A,,Clear,360,2013-03-07 08:15:00
2:35 AM,37.4,32.0,81,30.27,10.0,NNE,3.5,-,N/A,,Clear,30,2013-03-07 08:35:00
3:15 AM,37.4,32.0,81,30.26,10.0,NNE,5.8,-,N/A,,Clear,20,2013-03-07 09:15:00
3:35 AM,37.4,32.0,81,30.26,10.0,NNE,5.8,-,N/A,,Clear,20,2013-03-07 09:35:00
3:55 AM,35.6,32.0,87,30.26,10.0,NNE,4.6,-,N/A,,Clear,30,2013-03-07 09:55:00
4:15 AM,35.6,32.0,87,30.26,10.0,NNE,5.8,-,N/A,,Clear,30,2013-03-07 10:15:00
4:35 AM,37.4,32.0,81,30.27,10.0,NNE,4.6,-,N/A,,Clear,20,2013-03-07 10:35:00
5:15 AM,37.4,32.0,81,30.26,10.0,NE,4.6,-,N/A,,Clear,40,2013-03-07 11:15:00
5:35 AM,37.4,32.0,81,30.26,10.0,NNE,4.6,-,N/A,,Clear,30,2013-03-07 11:35:00
5:55 AM,37.4,32.0,81,30.28,10.0,NNE,5.8,-,N/A,,Clear,30,2013-03-07 11:55:00
6:15 AM,37.4,32.0,81,30.28,10.0,NNE,6.9,-,N/A,,Clear,20,2013-03-07 12:15:00
6:35 AM,37.4,32.0,81,30.29,10.0,NNE,5.8,-,N/A,,Clear,20,2013-03-07 12:35:00
6:55 AM,37.4,32.0,81,30.31,10.0,North,6.9,-,N/A,,Clear,10,2013-03-07 12:55:00
7:15 AM,41.0,32.0,70,30.32,10.0,North,5.8,-,N/A,,Clear,10,2013-03-07 13:15:00
7:35 AM,41.0,32.0,70,30.33,10.0,North,8.1,-,N/A,,Clear,10,2013-03-07 13:35:00
8:15 AM,44.6,32.0,61,30.34,10.0,NNE,8.1,-,N/A,,Clear,20,2013-03-07 14:15:00
8:35 AM,46.4,32.0,57,30.35,10.0,NNE,9.2,-,N/A,,Clear,30,2013-03-07 14:35:00
9:15 AM,50.0,32.0,50,30.35,10.0,NE,10.4,-,N/A,,Clear,40,2013-03-07 15:15:00
9:35 AM,50.0,32.0,50,30.34,10.0,NE,8.1,-,N/A,,Clear,50,2013-03-07 15:35:00
9:55 AM,51.8,32.0,47,30.34,10.0,North,4.6,-,N/A,,Clear,10,2013-03-07 15:55:00
10:15 AM,51.8,32.0,47,30.34,7.0,NNE,6.9,-,N/A,,Clear,30,2013-03-07 16:15:00
10:35 AM,53.6,32.0,44,30.34,10.0,North,6.9,-,N/A,,Clear,350,2013-03-07 16:35:00
10:55 AM,53.6,32.0,44,30.34,10.0,NE,4.6,-,N/A,,Clear,50,2013-03-07 16:55:00
11:15 AM,55.4,32.0,41,30.34,10.0,NNW,6.9,-,N/A,,Clear,330,2013-03-07 17:15:00
11:35 AM,55.4,32.0,41,30.34,10.0,North,5.8,-,N/A,,Clear,10,2013-03-07 17:35:00
11:55 AM,57.2,35.6,44,30.33,10.0,West,5.8,-,N/A,,Clear,280,2013-03-07 17:55:00
12:15 PM,57.2,35.6,44,30.31,7.0,WNW,6.9,-,N/A,,Clear,300,2013-03-07 18:15:00
12:35 PM,57.2,35.6,44,30.30,7.0,West,5.8,-,N/A,,Clear,280,2013-03-07 18:35:00
12:55 PM,59.0,35.6,42,30.29,5.0,NW,6.9,-,N/A,,Haze,320,2013-03-07 18:55:00
1:15 PM,59.0,33.8,39,30.28,7.0,WNW,6.9,-,N/A,,Clear,300,2013-03-07 19:15:00
1:35 PM,59.0,33.8,39,30.27,10.0,NW,8.1,-,N/A,,Clear,310,2013-03-07 19:35:00
2:15 PM,60.8,32.0,34,30.25,7.0,WNW,5.8,-,N/A,,Clear,300,2013-03-07 20:15:00
2:35 PM,62.6,32.0,32,30.25,7.0,NW,9.2,-,N/A,,Clear,320,2013-03-07 20:35:00
2:55 PM,62.6,32.0,32,30.25,10.0,NW,8.1,-,N/A,,Clear,320,2013-03-07 20:55:00
3:15 PM,64.4,30.2,28,30.25,10.0,NNW,9.2,-,N/A,,Clear,330,2013-03-07 21:15:00
3:35 PM,62.6,32.0,32,30.24,7.0,NNW,3.5,-,N/A,,Clear,330,2013-03-07 21:35:00
3:55 PM,62.6,32.0,32,30.23,10.0,NNW,4.6,-,N/A,,Clear,330,2013-03-07 21:55:00
4:15 PM,57.2,41.0,55,30.24,10.0,SW,9.2,-,N/A,,Clear,230,2013-03-07 22:15:00
4:35 PM,55.4,41.0,58,30.24,10.0,SW,5.8,-,N/A,,Clear,230,2013-03-07 22:35:00
4:55 PM,55.4,41.0,58,30.23,10.0,SW,8.1,-,N/A,,Clear,230,2013-03-07 22:55:00
5:15 PM,55.4,41.0,58,30.23,10.0,SW,6.9,-,N/A,,Clear,230,2013-03-07 23:15:00
5:35 PM,53.6,42.8,67,30.24,10.0,SW,4.6,-,N/A,,Clear,230,2013-03-07 23:35:00
5:55 PM,53.6,42.8,67,30.24,10.0,SW,4.6,-,N/A,,Clear,230,2013-03-07 23:55:00
7:55 PM,46.4,42.8,87,30.25,10.0,Calm,Calm,-,N/A,,Clear,0,2013-03-08 01:55:00
8:15 PM,44.6,42.8,93,30.26,10.0,Calm,Calm,-,N/A,,Clear,0,2013-03-08 02:15:00
8:35 PM,44.6,42.8,93,30.26,7.0,Calm,Calm,-,N/A,,Clear,0,2013-03-08 02:35:00
8:55 PM,42.8,41.0,93,30.27,5.0,Calm,Calm,-,N/A,,Clear,0,2013-03-08 02:55:00
9:15 PM,42.8,41.0,93,30.27,4.0,Calm,Calm,-,N/A,,Clear,0,2013-03-08 03:15:00
9:35 PM,42.8,41.0,93,30.27,4.0,Calm,Calm,-,N/A,,Clear,0,2013-03-08 03:35:00
9:55 PM,44.6,42.8,93,30.27,7.0,Calm,Calm,-,N/A,,Clear,0,2013-03-08 03:55:00
10:15 PM,42.8,42.8,100,30.26,7.0,Calm,Calm,-,N/A,,Clear,0,2013-03-08 04:15:00
10:35 PM,42.8,41.0,93,30.26,4.0,Calm,Calm,-,N/A,,Clear,0,2013-03-08 04:35:00
10:55 PM,41.0,41.0,100,30.27,7.0,Calm,Calm,-,N/A,,Clear,0,2013-03-08 04:55:00
11:15 PM,41.0,41.0,100,30.26,2.5,Calm,Calm,-,N/A,,Clear,0,2013-03-08 05:15:00
11:35 PM,41.0,41.0,100,30.26,7.0,Calm,Calm,-,N/A,,Clear,0,2013-03-08 05:35:00
11:55 PM,39.2,39.2,100,30.25,1.8,Calm,Calm,-,N/A,,Mist,0,2013-03-08 05:55:00